Regional Weather Roundup
Issued by NWS Albany, NY

Home | Current Version | Previous Version | Graphics & Text | Print | Product List | Glossary Off
Versions: 1 2 3 4 5 6 7 8 9 10 11 12 13 14 15 16 17 18 19 20 21 22 23 24 25 26 27 28 29 30 31 32 33 34 35 36 37 38 39 40 41 42 43 44 45 46 47 48 49 50

000
ASUS41 KALY 012110
RWRALY

NEW YORK STATE HOURLY WEATHER ROUNDUP
NATIONAL WEATHER SERVICE ALBANY NY
500 PM EDT WED APR 01 2015

NOTE: "FAIR" INDICATES FEW OR NO CLOUDS BELOW 12,000 FEET WITH NO
SIGNIFICANT WEATHER AND/OR NO OBSTRUCTIONS TO VISIBILITY.

NYZ032-033-038>043-046>054-057>066-NYZ062>081-012200-
EAST


CITY           SKY/WX    TMP DP  RH WIND       PRES   REMARKS
ALBANY         MOSUNNY   45   6  20 W16G26    30.09R
GLENS FALLS    SUNNY     44  10  25 VRB3      30.07R
POUGHKEEPSIE   SUNNY     51   8  17 NW12      30.06R
MONTGOMERY     SUNNY     50  13  22 NW10      30.06R
WHITE PLAINS   MOSUNNY   50  12  21 NW15G22   30.05R
ISLIP          MOSUNNY   49  19  30 NW17G23   30.05S
NEW YORK CITY  SUNNY     50  20  30 NW15G22   30.07S
CENTRAL PARK   SUNNY     50  19  29 W8G22     30.10S
$$

NYZ005>009-017-018-044>046-055-056-012200-
CENTRAL


CITY           SKY/WX    TMP DP  RH WIND       PRES   REMARKS
FULTON         SUNNY     36   6  28 NW6       30.18F WCI  31
SYRACUSE       SUNNY     39   6  25 W15       30.18S WCI  31
ROME           SUNNY     37   8  30 SW13      30.17R WCI  29
ELMIRA         SUNNY     47  18  31 NW8G18    30.13S
BINGHAMTON     SUNNY     38  12  34 NW13G21   30.11R WCI  30
MONTICELLO     SUNNY     43  12  28 NW14G22   30.08R
$$

NYZ026>034-041>043-012200-
NORTH


CITY           SKY/WX    TMP DP  RH WIND       PRES   REMARKS
WATERTOWN      SUNNY     38  11  32 W7        30.18S WCI  33
FORT DRUM      NOT AVBL
MASSENA        SUNNY     36   9  32 W12       30.17S WCI  28
SARANAC LAKE   SUNNY     32   0  25 W9        30.04R WCI  24
PLATTSBURGH    SUNNY     39   0  19 NW14G20   30.10R WCI  31
$$

NYZ001>004-010>016-019>021-012200-
WEST


CITY           SKY/WX    TMP DP  RH WIND       PRES   REMARKS
NIAGARA FALLS  MOSUNNY   44  22  41 SW6       30.15F
BUFFALO        MOSUNNY   43  12  28 S10       30.16S
DUNKIRK        MOSUNNY   44  31  60 N5        30.15F
JAMESTOWN      PTSUNNY   39  30  70 SW5       30.13F
WELLSVILLE     SUNNY     43  23  45 W8        30.11S
ROCHESTER      SUNNY     44  13  28 VRB5      30.16F
PENN YAN       SUNNY     45  17  32 NW6       30.14F
$$

             KEY
       WCI = WIND CHILL INDEX
       VSB = VISIBILITY
       HX  = HEAT INDEX
$$


USA.gov is the U.S. government's official web portal to all federal, state and local government web resources and services.